Wind_Speed
17 17 18 18 18 18 18 18 19 19 19 19 20 21 22 24 24 24 23 23 23 22 22 22 22 22 22 21 21 20 20 19 19 19 19 18 18 18 18 17 17 16 16 15 15 15 15 14 14
18 19 19 20 20 19 19 20 20 21 21 21 22 23 24 24 24 25 25 24 24 24 24 24 24 24 23 23 23 22 22 21 20 20 20 20 20 20 19 18 18 18 18 17 16 15 15 15 15
20 20 21 21 21 20 21 21 22 23 23 23 24 25 25 24 25 26 26 26 26 26 26 26 26 26 25 25 24 24 24 23 22 22 22 21 21 21 20 20 19 19 18 18 17 16 16 16 16
21 22 23 23 22 22 22 23 23 24 24 24 25 26 26 26 26 27 28 28 28 28 28 28 28 28 27 26 26 26 26 26 25 24 24 24 23 24 23 22 22 21 20 20 20 18 18 17 17
23 23 24 24 23 23 23 24 25 26 25 26 27 27 27 27 28 28 29 30 30 30 30 31 30 30 29 29 28 28 28 28 27 27 27 27 26 26 26 25 24 24 23 22 21 20 20 19 19
23 24 25 25 24 24 24 25 26 27 27 28 29 29 28 29 29 30 30 31 31 31 32 32 32 32 31 31 31 30 30 30 30 29 29 29 29 28 28 28 26 26 25 24 24 23 22 22 21
24 25 26 26 25 25 26 27 28 28 29 29 29 31 30 30 31 31 32 32 33 32 32 32 33 33 33 33 33 33 33 32 32 31 31 31 30 30 30 29 28 27 27 27 26 26 24 24 24
25 27 27 27 27 27 27 28 29 29 30 30 30 31 30 30 31 32 33 33 33 33 32 33 34 34 34 35 35 35 35 34 33 33 33 33 32 31 30 31 30 30 29 28 28 28 27 27 26
27 28 28 28 29 28 29 30 30 30 31 31 32 32 31 31 32 32 33 33 33 33 33 33 34 34 35 36 36 36 36 35 35 35 35 35 34 34 33 32 32 32 31 30 29 29 29 29 28
29 30 29 29 30 30 30 31 31 31 32 32 33 33 32 32 32 33 33 33 33 33 33 35 35 36 36 36 37 37 37 37 37 37 37 37 37 36 36 35 35 35 33 32 31 31 30 30 30
30 30 30 30 31 32 32 32 32 32 32 33 33 33 33 33 33 34 34 33 33 33 34 35 35 36 37 37 38 38 38 38 39 39 39 40 39 39 38 37 36 36 36 34 32 32 31 31 30
31 31 31 32 33 33 33 34 34 34 33 34 34 35 34 34 35 35 35 35 34 34 34 36 35 36 37 38 38 39 39 40 40 40 41 41 41 41 40 39 39 37 38 37 35 33 33 32 31
32 32 33 34 34 34 35 35 35 35 35 35 35 35 35 35 36 36 36 36 35 35 36 36 36 36 37 38 39 39 39 40 41 42 42 43 43 43 42 41 41 39 39 39 39 36 35 35 33
33 34 34 35 35 35 36 36 36 35 36 37 37 37 37 37 37 37 37 37 37 37 36 37 37 37 37 38 39 39 40 40 41 42 42 43 44 44 44 44 42 41 40 40 41 40 38 37 36
35 36 35 35 36 36 37 36 36 36 37 37 38 38 38 39 39 38 38 38 38 38 37 37 37 37 38 38 39 40 40 41 41 42 42 43 44 44 44 44 44 43 42 41 41 42 40 39 39
36 37 37 36 37 38 38 38 36 37 38 38 38 38 39 39 40 40 40 39 39 39 39 38 38 38 38 39 39 40 41 42 42 42 42 43 44 44 45 45 45 45 44 43 42 43 42 41 40
36 37 38 38 39 40 40 39 37 37 39 39 39 39 40 40 41 41 41 41 41 41 41 41 40 39 39 40 40 41 41 41 42 42 42 43 43 44 44 45 45 46 46 46 45 44 44 43 42
37 38 39 39 40 41 41 40 39 39 39 40 40 41 41 41 42 42 42 42 42 42 42 42 42 41 40 41 40 40 40 41 42 42 42 43 43 43 44 44 46 46 47 47 47 46 47 46 45
38 40 41 41 41 42 42 42 40 40 40 40 40 41 42 42 43 43 44 43 43 43 43 43 43 43 42 41 41 41 41 41 42 42 41 42 43 43 43 44 46 46 47 48 48 48 48 49 47
39 41 42 43 42 43 43 43 41 41 41 41 40 41 42 43 43 44 44 44 44 44 44 44 44 44 43 43 42 42 42 42 42 42 42 43 43 44 45 45 45 46 47 48 49 49 50 51 49
40 41 42 43 43 43 44 44 42 41 42 41 41 41 41 42 43 43 44 45 45 45 45 44 44 44 44 44 44 43 43 42 42 42 43 44 44 44 46 46 46 46 48 49 49 50 51 52 52
41 41 41 42 43 43 43 45 43 42 42 42 41 41 40 41 42 43 44 45 45 45 45 45 45 45 45 44 44 44 43 43 42 43 43 44 44 45 46 47 47 48 49 50 51 52 52 53 52
42 41 42 41 42 43 42 45 44 43 42 41 40 40 40 41 41 42 43 44 44 44 45 45 45 45 46 45 45 45 44 44 43 44 44 44 45 46 46 47 48 49 49 50 51 52 52 53 53
41 41 42 41 41 42 40 42 43 42 41 40 39 39 39 39 40 41 42 43 43 44 44 45 45 45 46 46 46 45 45 44 44 44 44 44 45 45 46 48 48 48 49 49 50 52 52 52 54
40 40 40 40 40 41 39 40 41 40 40 40 39 38 38 39 40 40 41 42 42 43 43 44 45 45 46 46 46 45 46 46 45 45 45 45 45 45 46 47 48 48 48 48 48 50 50 51 53
37 37 37 38 39 39 38 39 39 39 39 39 39 39 39 39 40 40 41 41 42 42 43 44 45 45 46 46 45 45 45 45 46 46 46 46 45 45 46 46 47 47 47 47 47 48 48 50 52
35 34 34 36 37 37 36 37 37 37 38 39 38 38 39 40 40 40 40 41 42 43 43 44 44 45 46 46 46 46 46 46 46 46 47 47 46 46 46 46 46 47 47 46 46 47 48 49 51
32 32 32 33 35 36 35 35 36 36 36 37 37 38 38 39 40 40 40 40 40 42 42 43 44 44 45 45 46 46 47 47 47 47 47 47 47 47 47 47 47 47 47 47 47 47 48 50 50
31 32 32 33 34 35 35 34 34 34 34 35 36 38 38 39 39 40 40 40 40 41 41 41 42 43 44 44 44 45 46 46 47 47 47 47 47 47 47 48 48 49 48 48 48 47 47 48 49
31 32 31 32 33 34 35 35 34 34 34 34 35 36 38 38 38 38 38 39 39 40 40 41 41 42 42 43 44 44 45 45 46 46 47 46 46 46 47 48 48 48 48 49 48 48 47 48 49
Wind_Direction
258 259 259 259 260 263 265 265 265 264 264 264 264 263 263 263 262 262 261 258 256 255 253 250 248 247 247 247 247 247 247 247 246 245 244 243 241 240 240 242 240 241 242 241 241 240 237 238 238
259 259 259 260 262 265 267 266 266 266 265 265 265 264 263 264 264 263 260 258 257 255 254 252 249 248 247 248 249 249 249 248 248 247 246 245 244 243 242 243 243 242 242 242 242 243 241 242 240
260 259 260 261 263 265 266 268 267 266 267 266 265 264 264 265 264 264 262 260 258 256 255 253 251 249 247 249 249 249 249 249 249 249 248 247 245 244 244 243 242 244 244 244 242 244 245 244 240
261 260 261 262 263 265 266 267 267 268 267 267 266 265 265 264 264 263 263 262 259 257 255 254 252 251 250 249 250 251 251 251 250 250 250 249 247 246 245 245 245 245 245 245 244 243 245 245 242
262 262 263 264 265 265 266 267 267 268 269 268 267 265 265 264 265 265 264 263 261 258 256 254 253 252 251 251 252 252 251 251 250 250 251 250 249 249 247 247 247 245 244 244 244 244 244 245 246
264 264 265 266 267 267 266 267 268 269 270 269 269 267 266 265 265 265 264 263 262 260 257 255 255 253 252 251 251 252 252 252 251 251 252 252 251 250 249 248 247 247 244 243 243 244 245 245 246
266 267 267 269 269 268 268 269 271 271 271 270 270 269 267 266 266 265 264 263 262 260 259 255 254 254 253 253 253 253 253 253 252 252 252 252 251 250 249 248 246 246 245 244 244 244 244 245 245
269 269 269 269 270 271 272 271 272 272 272 271 271 271 270 268 266 266 265 264 262 259 258 258 256 255 254 254 254 254 254 253 253 253 252 251 249 249 248 247 246 245 244 244 244 243 243 244 244
271 271 272 272 272 273 273 272 272 272 272 272 271 271 270 268 266 266 265 264 263 260 259 259 258 257 255 255 255 254 253 253 254 253 252 250 249 249 248 247 246 246 245 244 244 243 243 244 243
271 272 274 274 274 273 273 273 273 272 271 271 270 270 270 269 268 267 266 265 263 261 259 259 260 257 256 256 255 255 255 254 254 253 252 251 249 249 249 249 248 248 247 246 246 245 243 244 244
272 273 273 272 273 273 273 273 273 272 272 271 270 270 269 269 268 267 266 265 262 261 260 259 262 261 258 257 256 256 256 255 255 253 252 252 251 250 249 250 250 249 248 248 248 246 244 244 244
273 273 272 272 272 273 273 272 272 272 272 270 270 269 269 268 267 266 265 264 263 262 262 262 263 262 260 259 258 257 256 256 255 253 252 252 251 249 249 249 249 249 249 249 247 247 246 245 245
274 274 274 274 274 274 273 273 272 271 271 270 269 268 268 268 267 266 265 264 263 263 264 264 263 263 262 260 259 258 257 256 255 254 253 252 251 249 248 248 248 248 248 248 248 246 246 245 244
276 276 275 274 274 274 274 272 271 271 270 269 268 268 268 268 267 266 265 264 264 265 265 264 263 264 264 262 261 259 257 257 256 255 254 253 252 250 249 248 248 247 247 247 248 248 246 246 245
278 277 276 275 276 275 274 273 272 271 270 269 268 268 267 267 266 265 265 265 265 265 265 265 264 264 264 263 262 261 260 258 257 256 254 254 252 251 249 247 247 247 247 247 247 248 246 246 246
279 278 277 276 276 275 275 274 274 272 270 269 268 267 266 266 266 265 265 264 264 264 265 265 264 264 264 264 263 262 262 261 259 257 256 254 252 250 249 248 246 246 246 247 247 248 247 246 247
280 279 279 277 276 276 275 275 275 273 272 270 269 268 266 266 265 265 264 264 264 265 265 265 264 265 264 264 263 263 263 262 260 258 257 255 253 251 249 248 247 247 247 247 247 249 248 247 248
283 282 280 279 278 276 275 275 275 274 273 271 270 268 267 266 265 265 264 265 265 266 266 265 265 265 264 264 264 263 262 261 259 258 257 255 253 251 250 249 248 247 247 247 247 248 248 249 249
285 283 281 280 279 277 276 275 275 274 274 273 271 269 268 267 266 264 264 264 265 266 266 265 265 265 263 264 263 262 261 261 259 258 257 255 254 253 251 250 249 248 247 247 248 249 249 248 249
285 283 282 280 280 279 277 276 275 274 273 272 271 270 269 267 266 265 265 265 265 266 266 265 265 264 264 263 263 262 261 261 259 259 258 256 254 254 252 251 251 250 248 248 248 248 249 248 249
286 285 284 283 281 279 278 276 275 274 273 272 272 271 270 269 267 265 265 265 266 266 266 265 265 263 263 263 262 263 261 260 260 259 258 257 255 254 253 252 252 251 250 249 249 249 249 249 250
286 285 284 283 282 280 278 278 275 274 273 272 272 271 270 269 268 266 265 265 265 266 265 265 265 263 263 263 262 262 262 260 259 259 259 257 256 255 254 252 253 253 252 251 250 249 250 250 249
287 286 285 283 283 281 279 279 277 275 274 273 273 272 271 270 269 268 267 266 266 265 265 265 264 263 262 262 261 260 261 261 260 259 258 257 257 256 255 254 253 253 254 253 252 250 250 250 248
288 286 285 283 283 282 282 281 280 278 277 275 274 272 271 270 269 269 268 267 266 266 265 264 264 263 263 262 261 260 260 260 260 259 258 257 257 256 255 254 254 254 255 255 254 252 251 249 248
288 286 286 285 283 283 284 283 281 280 279 278 276 273 272 270 269 268 268 267 266 265 265 264 264 263 262 262 262 261 260 260 260 259 258 257 256 255 254 253 253 254 255 255 254 253 252 251 249
289 287 287 287 287 286 285 284 283 282 281 279 277 274 272 272 270 269 268 267 266 265 264 264 264 263 262 262 262 261 261 260 259 259 258 257 256 255 254 253 253 253 254 254 254 254 253 252 250
290 289 288 287 287 287 286 285 285 284 282 281 279 277 274 272 270 270 268 267 267 266 266 265 264 263 262 262 262 262 262 261 260 259 259 258 257 256 254 253 253 253 254 254 255 255 254 253 251
290 290 289 288 288 287 287 286 286 286 285 283 282 280 277 274 271 269 268 267 268 267 267 266 265 264 263 263 262 263 263 262 261 260 259 258 256 256 256 254 254 254 254 255 256 256 254 252 251
291 290 289 287 287 288 287 286 285 286 287 285 283 281 278 276 274 270 269 268 268 268 267 267 266 264 264 264 264 263 263 263 262 260 258 257 256 257 257 257 255 254 254 254 254 254 253 251 250
292 292 290 288 287 287 287 287 287 286 285 284 283 281 279 277 275 272 270 269 269 269 267 267 266 265 265 264 264 264 263 262 261 259 257 256 256 256 257 257 256 255 254 253 254 253 253 252 250
Height
5796 5796 5797 5798 5799 5800 5800 5800 5800 5801 5802 5802 5802 5802 5803 5803 5805 5807 5807 5806 5807 5808 5810 5811 5812 5813 5814 5815 5816 5817 5818 5819 5821 5822 5823 5824 5826 5827 5828 5829 5831 5832 5833 5834 5835 5836 5837 5838 5839
5793 5793 5794 5795 5795 5796 5797 5796 5797 5797 5797 5798 5798 5798 5798 5799 5800 5800 5801 5802 5803 5804 5805 5806 5807 5808 5809 5811 5812 5813 5814 5815 5817 5818 5819 5821 5822 5823 5825 5826 5827 5829 5830 5831 5833 5833 5834 5836 5837
5789 5789 5791 5791 5791 5792 5792 5792 5792 5792 5793 5793 5794 5794 5794 5795 5795 5795 5796 5796 5798 5799 5800 5801 5802 5803 5804 5806 5807 5808 5810 5811 5812 5814 5815 5817 5818 5819 5821 5822 5824 5825 5827 5828 5830 5831 5832 5833 5834
5785 5786 5786 5787 5787 5788 5788 5788 5788 5787 5788 5788 5788 5788 5789 5790 5790 5790 5790 5791 5792 5793 5794 5795 5797 5798 5799 5801 5802 5803 5805 5806 5807 5809 5810 5812 5813 5815 5817 5818 5820 5821 5822 5824 5826 5827 5829 5830 5832
5781 5781 5782 5782 5783 5783 5783 5783 5783 5782 5783 5783 5782 5783 5784 5784 5784 5784 5784 5784 5785 5787 5788 5789 5790 5792 5793 5795 5796 5797 5799 5800 5802 5803 5805 5807 5808 5810 5812 5813 5815 5817 5818 5820 5822 5823 5825 5827 5828
5777 5777 5777 5777 5778 5778 5778 5777 5777 5777 5777 5776 5776 5776 5777 5778 5777 5777 5777 5777 5778 5780 5781 5782 5783 5785 5787 5788 5790 5791 5792 5794 5795 5797 5799 5801 5803 5804 5806 5808 5810 5812 5814 5815 5817 5819 5821 5823 5824
5772 5771 5771 5772 5772 5772 5773 5772 5771 5771 5771 5770 5770 5769 5770 5771 5770 5770 5770 5770 5771 5772 5774 5775 5776 5778 5780 5781 5783 5784 5786 5787 5789 5791 5793 5795 5797 5799 5800 5803 5804 5806 5808 5810 5812 5814 5816 5818 5820
5765 5766 5766 5766 5766 5766 5766 5765 5765 5764 5764 5763 5762 5762 5763 5764 5762 5762 5762 5762 5763 5765 5766 5768 5769 5770 5772 5773 5775 5777 5778 5780 5782 5784 5786 5788 5790 5792 5794 5796 5798 5800 5802 5804 5806 5809 5811 5813 5815
5759 5760 5760 5760 5760 5760 5759 5758 5758 5757 5757 5756 5755 5755 5755 5755 5755 5755 5755 5755 5756 5757 5759 5760 5761 5762 5764 5766 5767 5769 5770 5772 5774 5776 5778 5780 5783 5785 5787 5789 5792 5794 5796 5798 5800 5803 5805 5807 5809
5753 5753 5754 5754 5753 5752 5752 5751 5750 5750 5749 5748 5747 5747 5747 5747 5747 5747 5747 5748 5748 5750 5751 5753 5753 5754 5756 5758 5759 5760 5762 5764 5766 5768 5770 5772 5775 5777 5779 5782 5784 5787 5789 5791 5794 5796 5799 5801 5803
5747 5747 5747 5746 5745 5744 5744 5743 5742 5742 5742 5741 5740 5740 5740 5739 5739 5739 5740 5740 5740 5742 5743 5744 5744 5746 5747 5749 5750 5752 5753 5755 5757 5759 5761 5764 5766 5768 5771 5774 5776 5779 5781 5784 5786 5789 5792 5794 5797
5740 5740 5739 5738 5737 5736 5736 5735 5735 5734 5734 5733 5732 5732 5732 5731 5731 5731 5732 5732 5733 5734 5735 5736 5736 5738 5739 5740 5741 5743 5744 5746 5747 5749 5752 5754 5756 5759 5762 5765 5768 5770 5773 5776 5779 5782 5784 5787 5790
5732 5732 5730 5730 5729 5728 5727 5727 5726 5726 5725 5724 5723 5723 5723 5723 5723 5723 5723 5724 5725 5726 5726 5727 5728 5728 5730 5731 5732 5733 5735 5736 5738 5740 5742 5744 5746 5749 5752 5755 5758 5761 5764 5767 5770 5773 5777 5780 5783
5724 5723 5722 5721 5720 5719 5718 5717 5716 5717 5716 5715 5714 5715 5714 5714 5714 5715 5715 5716 5717 5717 5718 5718 5718 5719 5720 5721 5723 5724 5725 5726 5728 5729 5731 5734 5736 5738 5741 5745 5748 5752 5755 5758 5761 5765 5768 5771 5774
5715 5714 5713 5712 5710 5709 5708 5708 5708 5707 5706 5705 5705 5705 5705 5705 5705 5706 5707 5707 5708 5708 5709 5709 5709 5710 5711 5712 5713 5714 5715 5716 5718 5719 5721 5723 5725 5727 5730 5734 5738 5741 5745 5748 5752 5755 5759 5762 5766
5705 5704 5703 5704 5701 5699 5699 5699 5699 5697 5696 5696 5696 5696 5696 5696 5696 5696 5697 5698 5698 5699 5699 5699 5700 5701 5701 5702 5703 5704 5705 5706 5707 5708 5710 5711 5714 5716 5719 5723 5727 5730 5734 5738 5742 5746 5749 5753 5757
5696 5694 5693 5693 5691 5689 5688 5688 5688 5687 5686 5686 5686 5686 5686 5686 5686 5686 5687 5688 5688 5689 5689 5690 5690 5691 5691 5692 5693 5694 5695 5696 5696 5697 5699 5700 5702 5704 5707 5711 5715 5719 5723 5728 5731 5735 5739 5743 5746
5687 5685 5683 5682 5680 5678 5677 5678 5678 5677 5676 5676 5676 5676 5676 5676 5676 5676 5677 5677 5678 5679 5679 5679 5680 5680 5681 5682 5683 5684 5684 5685 5686 5687 5688 5689 5691 5693 5696 5699 5703 5707 5712 5716 5720 5724 5728 5732 5735
5677 5674 5672 5671 5669 5667 5666 5666 5667 5666 5665 5665 5665 5665 5665 5665 5665 5665 5666 5666 5667 5668 5668 5669 5669 5669 5670 5671 5672 5673 5674 5674 5675 5676 5677 5679 5680 5682 5685 5688 5692 5696 5700 5704 5708 5713 5717 5720 5724
5666 5664 5662 5660 5658 5656 5655 5655 5655 5655 5655 5655 5655 5655 5654 5654 5654 5654 5655 5655 5656 5657 5657 5658 5658 5658 5659 5660 5661 5661 5662 5663 5664 5665 5666 5668 5669 5671 5674 5677 5680 5684 5688 5692 5696 5700 5704 5708 5712
5656 5653 5651 5648 5647 5644 5643 5642 5644 5644 5643 5643 5643 5643 5642 5642 5642 5643 5643 5644 5644 5645 5646 5646 5647 5647 5648 5648 5649 5650 5651 5652 5653 5654 5655 5657 5658 5660 5663 5665 5669 5672 5675 5679 5683 5687 5691 5695 5699
5645 5643 5640 5637 5634 5632 5632 5629 5632 5632 5631 5631 5631 5631 5631 5630 5631 5631 5631 5632 5632 5633 5634 5634 5635 5635 5636 5636 5637 5638 5639 5640 5642 5642 5644 5645 5646 5648 5651 5654 5657 5660 5663 5666 5670 5674 5678 5681 5685
5634 5632 5629 5626 5622 5620 5621 5617 5619 5619 5619 5620 5620 5620 5619 5619 5619 5619 5619 5620 5620 5621 5621 5622 5622 5623 5624 5624 5625 5626 5627 5628 5629 5630 5631 5633 5634 5636 5638 5641 5644 5647 5650 5653 5656 5659 5664 5668 5672
5623 5620 5617 5614 5611 5609 5611 5608 5606 5607 5608 5609 5609 5608 5608 5608 5608 5608 5608 5608 5608 5609 5609 5610 5610 5611 5611 5611 5612 5613 5615 5615 5616 5617 5619 5620 5622 5623 5625 5628 5631 5634 5637 5639 5642 5645 5649 5653 5657
5612 5609 5606 5602 5600 5599 5600 5596 5596 5596 5596 5597 5597 5596 5596 5596 5596 5596 5596 5596 5596 5597 5597 5597 5598 5598 5598 5599 5600 5601 5602 5603 5604 5605 5606 5608 5609 5611 5613 5615 5618 5620 5623 5626 5628 5631 5635 5639 5643
5602 5599 5597 5593 5591 5589 5589 5586 5587 5586 5585 5584 5584 5584 5584 5584 5584 5584 5584 5584 5584 5585 5585 5585 5586 5586 5586 5587 5587 5588 5589 5590 5591 5592 5593 5595 5596 5598 5600 5602 5605 5608 5610 5613 5615 5618 5621 5625 5629
5592 5589 5587 5584 5581 5579 5578 5577 5576 5575 5574 5573 5573 5573 5573 5573 5572 5572 5572 5572 5572 5572 5573 5573 5573 5573 5574 5574 5575 5575 5576 5577 5578 5579 5580 5582 5583 5585 5587 5590 5592 5595 5597 5600 5602 5605 5608 5611 5614
5584 5581 5578 5575 5571 5569 5569 5568 5566 5565 5564 5563 5562 5561 5561 5561 5560 5560 5560 5560 5560 5560 5560 5560 5560 5561 5561 5562 5562 5562 5563 5564 5565 5566 5567 5569 5570 5572 5574 5577 5579 5581 5584 5587 5589 5592 5594 5597 5600
5575 5572 5569 5566 5564 5561 5559 5561 5557 5556 5554 5553 5551 5550 5550 5549 5548 5548 5548 5548 5548 5548 5548 5548 5548 5548 5549 5549 5549 5550 5550 5551 5552 5553 5554 5556 5557 5559 5561 5563 5566 5568 5571 5573 5576 5578 5581 5583 5587
5565 5563 5561 5559 5556 5553 5550 5553 5549 5546 5544 5543 5541 5540 5539 5538 5537 5537 5537 5536 5536 5536 5536 5536 5535 5536 5536 5536 5537 5537 5537 5538 5539 5540 5541 5543 5544 5546 5547 5549 5552 5554 5557 5560 5562 5565 5567 5570 5573